Location: Castle
(40.7167°S, 175.9500°E)
Time: 03:07:35
(UTC+00:00)

BREEZE-M DEB (TANK) - Pass Details

Date: 04 August 2024
Orbit: 661 x 22265 km, 51.1° (Epoch: 06 September)

Event Time Altitude Azimuth Distance (km) Brightness Sun altitude
Rises 17:57:34 0° 299° (WNW) 9,877 8.2 -15.6°
Reaches altitude 10° 18:06:56 10° 295° (WNW) 6,358 7.2 -13.8°
Maximum altitude 18:19:48 63° 214° (SSW) 1,261 3.9 -11.4°
Drops below altitude 10° 18:24:11 10° 130° (SE) 2,285 6.0 -10.6°
Sets 18:25:53 0° 126° (SE) 3,062 6.8 -10.3°
